Location: eljas
(40.1958°N, 6.8661°W)
Time: 13:09:30
(UTC+02:00)

Daily predictions for brighter satellites

Satellite Brightness Start Highest point End
(mag) Time Altitude Azimuth Time Altitude Azimuth Time Altitude Azimuth
PSLV R/B 3.1 22:16:31 10° W 22:19:39 82° N 22:22:47 10° E
Cosmos 923 Rocket 4.0 22:15:10 10° SSW 22:20:29 78° ESE 22:25:48 10° NNE
Cosmos 405 4.5 22:18:29 10° NNE 22:21:18 21° ENE 22:24:05 10° SE
Resurs 1-3 4.4 22:17:25 10° S 22:21:42 53° W 22:26:00 10° NNW
Nadezhda 1 Rocket 4.5 22:16:47 10° SSE 22:22:42 43° E 22:28:41 10° NNE
USA 186 2.4 22:19:48 10° S 22:22:58 57° W 22:26:02 10° NNW
ERS-1 Rocket 3.9 22:22:01 10° SE 22:26:27 33° ENE 22:30:54 10° N
NOSS 2-2 (C) 4.1 22:22:44 10° SW 22:26:42 62° NW 22:31:14 10° NNE
Cosmos 405 Rocket 2.6 22:26:04 10° S 22:29:48 79° E 22:33:39 10° NNE
Resurs 01 Rocket 3.3 22:30:58 10° SSW 22:34:58 33° W 22:39:00 10° NNW
COSMOS 2406 3.3 22:29:48 10° SSW 22:35:32 87° WNW 22:41:17 10° NNE
SPOT 5 4.3 22:32:43 10° ESE 22:35:39 18° ENE 22:38:38 10° NNE
Cosmos 1455 Rocket 4.2 22:32:51 10° NNW 22:37:01 45° W 22:41:08 10° SSW
DEBRIS 3.5 22:34:08 10° WSW 22:37:17 90° N 22:47:13 10° ENE
Aureole 3 Rocket 3.6 22:31:13 10° S 22:37:39 75° E 22:42:13 10° NNE
Cosmos 1441 Rocket 3.3 22:35:19 10° S 22:38:55 50° E 22:42:33 10° NNE
Cosmos 2082 Rocket 3.8 22:36:39 11° SE 22:39:15 14° E 22:42:12 10° ENE
Meteor 1-13 Rocket 4.5 22:35:31 10° S 22:41:28 85° W 22:47:23 10° N
Tiangong 2 1.1 22:44:45 10° WSW 22:47:55 80° NNW 22:51:06 10° ENE
Cosmos 2112 Rocket 4.1 22:47:50 10° SSW 22:53:03 82° WNW 22:58:17 10° NNE
Meteor 1-29 3.3 22:50:06 10° N 22:53:27 66° WNW 22:56:47 10° SSW
CRYOSAT 2 4.4 22:51:15 10° SSE 22:56:02 64° E 23:00:50 10° N
Cosmos 1238 Rocket 4.1 22:51:48 10° S 22:58:32 78° E 23:05:02 10° N
H-2A R/B 3.3 22:57:56 14° ESE 23:00:52 24° ENE 23:04:51 10° NNE
Cosmos 1624 Rocket 4.4 22:55:45 10° N 23:00:53 49° ENE 23:04:34 18° SE
ASTEX 1 3.3 22:56:43 10° SSE 23:01:38 80° E 23:06:33 10° N
Cosmos 1743 4.2 23:00:50 10° NNW 23:04:27 36° W 23:08:02 10° SSW
OAO 2 Rocket 3.6 23:00:21 10° WSW 23:05:04 46° S 23:08:16 19° ESE
DNEPR-1 R/B 4.0 23:02:02 10° NW 23:06:14 57° WSW 23:09:51 16° SSE
Meteor 2-9 Rocket 4.2 23:02:37 10° N 23:08:08 84° W 23:13:32 11° S
Cosmos 2341 Rocket 4.3 23:04:03 10° N 23:10:13 51° ENE 23:14:41 19° SSE
Cosmos 1833 Rocket 3.6 23:14:17 21° SE 23:16:45 29° ESE 23:21:30 10° NE
Cosmos 2228 4.1 23:13:32 10° NNE 23:17:17 29° ENE 23:18:49 23° ESE
Cosmos 921 Rocket 3.6 23:15:49 10° N 23:20:06 43° ENE 23:22:07 26° SE
Cosmos 2056 Rocket 3.5 23:15:01 10° NNW 23:20:11 67° ENE 23:23:13 24° SSE
SL-08 RB Rocket 4.2 23:18:02 24° SE 23:20:17 44° ENE 23:24:32 10° N
ISS -2.0 23:18:08 10° W 23:21:11 34° NNW 23:24:16 10° NE
Meteor 2-4 Rocket 4.4 23:17:34 10° SSW 23:23:05 56° WNW 23:28:48 10° N
MetOp-A 4.1 23:19:21 19° SSE 23:23:16 84° ENE 23:28:40 10° NNW
Okean 1-7 Rocket 4.2 23:20:34 10° SSW 23:24:56 57° W 23:29:23 10° N
YAOGAN 6 3.9 23:23:14 12° SSW 23:26:06 35° W 23:29:22 10° NNW
Cosmos 1892 Rocket 3.6 23:24:00 22° SSE 23:26:42 61° E 23:31:04 10° NNE
NOSS 8 (F) 4.4 23:23:36 10° SSW 23:27:06 62° ESE 23:30:37 10° NE
Meteor 1-4 Rocket 4.1 23:28:25 10° NNE 23:31:12 21° ENE 23:31:30 21° E
Cosmos 1437 Rocket 2.9 23:33:09 10° NNW 23:36:59 68° W 23:38:53 28° S
Cosmos 1606 Rocket 3.6 23:35:15 10° N 23:39:34 77° W 23:41:48 28° S
Cosmos 2181 Rocket 4.0 23:35:04 17° S 23:40:07 75° E 23:46:24 10° N
NOSS 8 (H) 4.2 23:47:30 53° S 23:48:06 69° ESE 23:51:35 10° NE
Cosmos 1980 Rocket 3.6 23:43:56 10° N 23:48:34 25° NE 23:51:05 19° E
Cosmos 1295 Rocket 4.4 23:43:04 10° N 23:49:17 85° E 23:52:50 28° S
Cosmos 1726 Rocket 3.6 23:45:05 10° NNW 23:49:23 72° W 23:51:16 33° S
USA 245 2.7 23:50:06 55° WNW 23:50:06 55° WNW 23:52:13 10° NNW
SPOT 1/Viking Rocket 3.5 23:49:45 34° SSE 23:52:05 82° ENE 23:57:17 10° NNW
Cosmos 1452 Rocket 3.8 23:47:00 10° N 23:52:10 53° ENE 23:54:03 36° ESE
Nimbus 7 Rocket 4.4 23:47:07 10° NNE 23:53:14 84° ESE 23:57:49 19° SSW
PSLV R/B 4.4 23:53:42 10° W 23:55:49 30° WSW 23:55:49 30° WSW
